Find Yaogan 33-03

NORAD ID: 57797 Int'l Des: 2023-136 Owner: ZLZB Country: CN Constellation: yaogan operational
LEOCIRCULARRETROGRADESSO

实时位置

正在加载3D地球...

关于 Yaogan 33-03

正在加载描述...

即将过境

Passes for default location (London). Set your location on the main map for personalized predictions.

高度历史

Loading altitude history...

两行轨道根数

1 57797U 23136A 26121.96122400 .00000462 00000-0 10885-3 0 9993
2 57797 98.1956 46.9057 0007355 341.6046 18.4887 14.58685170141197
Epoch: May 1, 2026 • Age: 4 hours

当前状态

高度 706.5 km
速度 7.50 km/s
星下点 31.06°N, 33.65°W
发射日期 Sep 6, 2023
运行时间 2.6 years
类型 military

技术详情

分类 Payload
质量 1040.00 kg
干质量 1040.00 kg
总质量 1040.00 kg
长度 1.50 m
直径 1.50 m
跨度 5.00 m
形状 Box + 2 Pan
制造商 SAST
平台类型 JB-9
阶段状态 In Orbit
所有者/国家 ZLZB/CN

Most Searched